Vancouver, WA

6:36 PM PDT on June 23, 2017 (GMT -0700)
Pearson

Weather History for KVUO - December, 2012

Change the Weather History Date:

Monday, December 24, 2012

  Actual Average Record
Temperature  
Mean Temperature 42 °F 40 °F  
Max Temperature 46 °F 46 °F 59 °F (1980)
Min Temperature 38 °F 34 °F 1 °F (1983)
Degree Days  
Heating Degree Days 23    
Month to date heating degree days 511  
Since 1 July heating degree days 1333  
Cooling Degree Days 0    
Month to date cooling degree days 0  
Year to date cooling degree days 398  
Moisture  
Dew Point 37 °F    
Average Humidity 81    
Maximum Humidity 92    
Minimum Humidity 70    
Precipitation  
Precipitation 0.04 in 0.24 in 1.32 in (1902)
Month to date precipitation 6.76 5.21  
Year to date precipitation 45.08 37.58  
Snow  
Snow 0.00 in - - ()
Month to date snowfall 0.0  
Snow Depth 0.00 in    
Sea Level Pressure  
Sea Level Pressure 30.12 in    
Wind  
Wind Speed 3 mph (SE)    
Max Wind Speed 9 mph    
Max Gust Speed 13 mph    
Visibility 10 miles    
Events Rain    
T = Trace of Precipitation, MM = Missing Value Source: NWS Daily Summary

Daily Weather History Graph

Daily Weather History Graph

Search for Another Location

Airport or City:

Trip Planner

Search our weather history database for the weather conditions in past years. The results will help you decide how hot, cold, wet, or windy it might be!

Date:

Astronomy

Dec. 24, 2012 Rise Set
Actual Time 7:49 AM PST 4:31 PM PST
Civil Twilight 7:15 AM PST 5:05 PM PST
Nautical Twilight 6:37 AM PST 5:43 PM PST
Astronomical Twilight 6:01 AM PST 6:19 PM PST
Moon 2:05 PM PST 4:29 AM PST
Length of Visible Light 9h 50m
Length of Day
8h 41m
Waxing Gibbous, 89% of the Moon is Illuminated
Dec 24
Waxing Gibbous
Dec 28
Full
Jan 4
Last Quarter
Jan 11
New
Jan 18
First Quarter

Hourly Weather History & Observations

Time (PST) Temp. Windchill Dew Point Humidity Pressure Visibility Wind Dir Wind Speed Gust Speed Precip Events Conditions
12:27 AM 41.0 °F 39.0 °F 35.6 °F 81% 29.92 in 10.0 mi Variable 3.5 mph - 0.00 in   Overcast
12:53 AM 41.0 °F 39.0 °F 37.0 °F 86% 29.93 in 10.0 mi SSW 3.5 mph - 0.01 in Rain Light Rain
1:22 AM 41.0 °F - 37.4 °F 87% 29.94 in 10.0 mi Calm Calm - 0.01 in   Overcast
1:53 AM 41.0 °F - 37.0 °F 86% 29.96 in 10.0 mi Calm Calm - 0.01 in   Overcast
2:53 AM 41.0 °F 39.0 °F 37.0 °F 86% 29.99 in 10.0 mi SW 3.5 mph - 0.00 in Rain Light Rain
3:27 AM 41.0 °F - 37.4 °F 87% 30.00 in 10.0 mi Calm Calm - 0.01 in Rain Light Rain
3:53 AM 41.0 °F - 37.0 °F 86% 30.01 in 10.0 mi Calm Calm - 0.01 in   Overcast
4:53 AM 41.0 °F - 37.0 °F 86% 30.04 in 10.0 mi Calm Calm - 0.00 in   Overcast
5:08 AM 41.0 °F 39.0 °F 37.4 °F 87% 30.05 in 10.0 mi South 3.5 mph - 0.00 in Rain Light Rain
5:21 AM 41.0 °F - 37.4 °F 87% 30.05 in 10.0 mi Calm Calm - 0.00 in Rain Light Rain
5:53 AM 41.0 °F 38.0 °F 37.0 °F 86% 30.07 in 10.0 mi Variable 4.6 mph - 0.00 in   Mostly Cloudy
6:53 AM 39.9 °F - 37.0 °F 89% 30.09 in 10.0 mi Calm Calm - N/A   Partly Cloudy
7:53 AM 39.9 °F 37.8 °F 37.0 °F 89% 30.12 in 10.0 mi East 3.5 mph - N/A   Overcast
8:53 AM 41.0 °F - 37.0 °F 86% 30.16 in 10.0 mi Calm Calm - N/A   Overcast
9:53 AM 42.1 °F - 37.9 °F 85% 30.19 in 10.0 mi Calm Calm - 0.01 in   Overcast
10:48 AM 42.8 °F 41.1 °F 37.4 °F 81% 30.20 in 10.0 mi ESE 3.5 mph - N/A   Overcast
10:53 AM 43.0 °F 41.3 °F 37.9 °F 82% 30.20 in 10.0 mi SE 3.5 mph - N/A   Overcast
11:09 AM 42.8 °F 39.3 °F 39.2 °F 87% 30.20 in 10.0 mi ESE 5.8 mph - N/A   Overcast
11:13 AM 42.8 °F - 39.2 °F 87% 30.20 in 10.0 mi Calm Calm - N/A   Overcast
11:32 AM 44.6 °F 43.1 °F 39.2 °F 81% 30.20 in 10.0 mi ESE 3.5 mph - N/A   Overcast
11:44 AM 44.6 °F 42.2 °F 37.4 °F 76% 30.20 in 10.0 mi East 4.6 mph - N/A   Overcast
11:53 AM 44.1 °F 42.5 °F 37.9 °F 79% 30.20 in 10.0 mi SSW 3.5 mph - N/A   Mostly Cloudy
12:53 PM 45.0 °F - 36.0 °F 71% 30.21 in 10.0 mi Calm Calm - N/A   Scattered Clouds
1:05 PM 44.6 °F 43.1 °F 37.4 °F 76% 30.20 in 10.0 mi SSE 3.5 mph - N/A   Mostly Cloudy
1:24 PM 44.6 °F 43.1 °F 37.4 °F 76% 30.20 in 10.0 mi SSE 3.5 mph - N/A   Overcast
1:53 PM 46.0 °F 43.9 °F 37.0 °F 71% 30.20 in 10.0 mi SSE 4.6 mph - N/A   Overcast
2:00 PM 44.6 °F 43.1 °F 37.4 °F 76% 30.20 in 10.0 mi SSE 3.5 mph - N/A   Mostly Cloudy
2:43 PM 46.4 °F 45.2 °F 37.4 °F 71% 30.19 in 10.0 mi SSE 3.5 mph - N/A   Overcast
2:53 PM 46.0 °F 44.8 °F 37.9 °F 73% 30.19 in 10.0 mi South 3.5 mph - N/A   Overcast
3:03 PM 46.4 °F 44.3 °F 37.4 °F 71% 30.19 in 10.0 mi SSE 4.6 mph - N/A   Overcast
3:53 PM 45.0 °F 42.6 °F 36.0 °F 71% 30.18 in 10.0 mi SSE 4.6 mph - N/A   Mostly Cloudy
4:53 PM 44.1 °F - 37.0 °F 76% 30.18 in 10.0 mi Calm Calm - N/A   Overcast
5:53 PM 43.0 °F 41.3 °F 37.9 °F 82% 30.17 in 10.0 mi ESE 3.5 mph - N/A   Clear
6:53 PM 43.0 °F 39.5 °F 37.9 °F 82% 30.15 in 10.0 mi ESE 5.8 mph - N/A   Mostly Cloudy
7:53 PM 42.1 °F 38.4 °F 37.9 °F 85% 30.13 in 10.0 mi ESE 5.8 mph - N/A   Clear
8:53 PM 42.1 °F 37.1 °F 37.9 °F 85% 30.10 in 10.0 mi ESE 8.1 mph - N/A   Clear
9:53 PM 41.0 °F - 37.0 °F 86% 30.09 in 10.0 mi Calm Calm - N/A   Overcast
10:53 PM 41.0 °F 38.0 °F 37.0 °F 86% 30.07 in 10.0 mi ESE 4.6 mph - N/A   Overcast
11:53 PM 42.1 °F - 36.0 °F 79% 30.04 in 10.0 mi Calm Calm - N/A   Overcast